Weather in Blue Bay

Mauritius     20°26′33″S   57°43′04″E
temp.,
°C
wind,
m/s
gust,
m/s
humid.,
%
clouds,
%
prec.,
mm/h
press.,
hPa
HPBL,
m
24 may, tue
tue2401:00+24ese99654 0.0 10171272
04:00+24e89640 0.0 10171278
07:00+24e89641 0.0 10181177
10:00+25e89630 0.0 10191396
13:00+25e78600 0.0 10171246
16:00+25e78716 0.1 10171071
19:00+25e77640 0.1 10181167
22:00+24ese67706 0.1 1019986
25 may, wed
wed2501:00+24ese677511 0.1 1018922
04:00+24ese567617 0.4 1017830
07:00+24ene457726 0.9 1018498
10:00+24ene787475 3.2 1019840
13:00+25ene776737 0.6 10181089
16:00+25ene566713 0.6 10171101
19:00+24ene66705 0.0 1018918
22:00+24ene67680 0.0 1018893
26 may, thu
thu2601:00+24e45670 0.0 1018987
04:00+24e45677 0.0 1017982
07:00+24e45660 0.0 1018854
10:00+25e45697 0.0 1019955
13:00+25e44703 0.0 1016856
16:00+24ese44697 0.0 1016917
19:00+24ese34670 0.0 1017828
22:00+24ese34670 0.0 1017740
27 may, fri
fri2701:00+24se33700 0.0 1017678
04:00+24se33749 0.0 1015749
07:00+24sse337514 0.0 1016727
10:00+24sse34733 0.0 1017787
13:00+24s44690 0.0 1015778
16:00+24s45690 0.0 1014811
19:00+24s56712 0.0 1015850
22:00+24s56723 0.0 1016887
28 may, sat
sat2801:00+24s56738 0.0 1016847
04:00+24s67744 0.0 1015895
07:00+24s45751 0.0 1016775
10:00+24s56713 0.0 1017962
13:00+24sse677722 0.3 1015826
16:00+24sse9107749 1.8 1015993
19:00+24sse9107244 0.5 10171098
22:00+24sse9107222 0.8 10181177